Location: Feudal
(51.8839°N, 107.6105°W)
Time: 05:39:35
(UTC+00:00)

Envisat - Pass Details

Date: 29 January 2022
Orbit: 764 x 765 km, 98.2° (Epoch: 25 May)

Event Time Altitude Azimuth Distance (km) Brightness Sun altitude
Rises 14:03:38 0° 4° (N) 3,245 6.1 -8.0°
Reaches altitude 10° 14:06:42 10° 345° (NNW) 2,314 5.2 -7.5°
Maximum altitude 14:09:51 17° 307° (NW) 1,880 4.4 -7.1°
Drops below altitude 10° 14:13:00 10° 268° (W) 2,307 4.9 -6.6°
Sets 14:16:03 0° 249° (WSW) 3,229 5.8 -6.2°
